Time,TemperatureF,DewpointF,PressureIn,WindDirection,WindDirectionDegrees,WindSpeedMPH,WindSpeedGustMPH,Humidity,HourlyPrecipIn,Conditions,Clouds,dailyrainin,SoftwareType,DateUTC
2013-06-01 00:07:00,72.3,60.7,30.07,SW,225,0.0,0.0,67,0.00,,,0.00,WUHU21623XXSP,2013-06-01 04:07:00,
2013-06-01 00:12:00,72.5,60.9,30.07,SW,225,0.0,0.0,67,0.00,,,0.00,WUHU21623XXSP,2013-06-01 04:12:00,
2013-06-01 00:17:00,72.5,60.9,30.06,SW,225,0.0,0.0,67,0.00,,,0.00,WUHU21623XXSP,2013-06-01 04:17:00,
2013-06-01 00:22:00,72.5,60.9,30.06,SW,225,0.0,0.0,67,0.00,,,0.00,WUHU21623XXSP,2013-06-01 04:22:00,
2013-06-01 00:27:00,71.4,61.2,30.06,SW,225,0.0,0.0,70,0.00,,,0.00,WUHU21623XXSP,2013-06-01 04:27:00,
2013-06-01 00:32:00,71.4,61.2,30.05,SW,225,0.0,0.0,70,0.00,,,0.00,WUHU21623XXSP,2013-06-01 04:32:00,
2013-06-01 00:37:00,71.4,61.2,30.06,SW,225,0.0,0.0,70,0.00,,,0.00,WUHU21623XXSP,2013-06-01 04:37:00,
2013-06-01 00:42:00,71.4,61.2,30.05,SW,225,0.0,0.0,70,0.00,,,0.00,WUHU21623XXSP,2013-06-01 04:42:00,
2013-06-01 00:47:00,70.9,61.0,30.06,SSW,202,0.0,0.0,71,0.00,,,0.00,WUHU21623XXSP,2013-06-01 04:47:00,
2013-06-01 00:52:00,70.9,61.0,30.05,SSW,202,0.0,0.0,71,0.00,,,0.00,WUHU21623XXSP,2013-06-01 04:52:00,
2013-06-01 00:57:00,70.9,61.0,30.05,South,180,0.0,0.0,71,0.00,,,0.00,WUHU21623XXSP,2013-06-01 04:57:00,
2013-06-01 01:02:00,70.5,61.0,30.05,South,180,0.0,0.0,71,0.00,,,0.00,WUHU21623XXSP,2013-06-01 05:02:00,
2013-06-01 01:07:00,70.7,60.8,30.05,South,180,0.0,0.0,71,0.00,,,0.00,WUHU21623XXSP,2013-06-01 05:07:00,
2013-06-01 01:12:00,70.7,60.8,30.05,South,180,0.0,0.0,71,0.00,,,0.00,WUHU21623XXSP,2013-06-01 05:12:00,
2013-06-01 01:17:00,70.5,60.6,30.05,South,180,0.0,0.0,71,0.00,,,0.00,WUHU21623XXSP,2013-06-01 05:17:00,
2013-06-01 01:22:00,70.5,60.6,30.05,South,180,0.0,0.0,71,0.00,,,0.00,WUHU21623XXSP,2013-06-01 05:22:00,
2013-06-01 01:27:00,70.3,60.5,30.05,South,180,0.0,0.0,71,0.00,,,0.00,WUHU21623XXSP,2013-06-01 05:27:00,
2013-06-01 01:32:00,70.3,60.5,30.05,South,180,0.0,0.0,71,0.00,,,0.00,WUHU21623XXSP,2013-06-01 05:32:00,
2013-06-01 01:37:00,70.2,60.7,30.05,South,180,0.0,0.0,72,0.00,,,0.00,WUHU21623XXSP,2013-06-01 05:37:00,
2013-06-01 01:42:00,70.2,60.7,30.05,South,180,0.0,0.0,72,0.00,,,0.00,WUHU21623XXSP,2013-06-01 05:42:00,
2013-06-01 01:47:00,70.2,60.7,30.05,South,180,0.0,0.0,72,0.00,,,0.00,WUHU21623XXSP,2013-06-01 05:47:00,
2013-06-01 01:52:00,70.0,60.5,30.06,South,180,0.0,0.0,72,0.00,,,0.00,WUHU21623XXSP,2013-06-01 05:52:00,
2013-06-01 01:57:00,70.0,60.5,30.05,South,180,0.0,0.0,72,0.00,,,0.00,WUHU21623XXSP,2013-06-01 05:57:00,
2013-06-01 02:02:00,70.0,60.5,30.05,South,180,0.0,0.0,72,0.00,,,0.00,WUHU21623XXSP,2013-06-01 06:02:00,
2013-06-01 02:07:00,69.8,60.3,30.05,South,180,0.0,0.0,72,0.00,,,0.00,WUHU21623XXSP,2013-06-01 06:07:00,
2013-06-01 02:12:00,69.8,60.7,30.05,SSW,202,0.0,0.0,73,0.00,,,0.00,WUHU21623XXSP,2013-06-01 06:12:00,
2013-06-01 02:17:00,69.6,60.5,30.05,SSW,202,0.0,0.0,73,0.00,,,0.00,WUHU21623XXSP,2013-06-01 06:17:00,
2013-06-01 02:22:00,69.6,60.5,30.05,SSW,202,0.0,0.0,73,0.00,,,0.00,WUHU21623XXSP,2013-06-01 06:22:00,
2013-06-01 02:27:00,69.4,60.7,30.05,SSW,202,0.0,0.0,74,0.00,,,0.00,WUHU21623XXSP,2013-06-01 06:27:00,
2013-06-01 02:32:00,69.4,60.7,30.05,SSW,202,0.0,0.0,74,0.00,,,0.00,WUHU21623XXSP,2013-06-01 06:32:00,
2013-06-01 02:37:00,69.4,60.7,30.04,South,180,0.0,0.0,74,0.00,,,0.00,WUHU21623XXSP,2013-06-01 06:37:00,
2013-06-01 02:42:00,69.3,60.9,30.05,South,180,0.0,0.0,75,0.00,,,0.00,WUHU21623XXSP,2013-06-01 06:42:00,
2013-06-01 02:47:00,69.1,60.8,30.04,South,180,0.0,0.0,75,0.00,,,0.00,WUHU21623XXSP,2013-06-01 06:47:00,
2013-06-01 02:52:00,69.1,60.8,30.05,South,180,0.0,0.0,75,0.00,,,0.00,WUHU21623XXSP,2013-06-01 06:52:00,
2013-06-01 02:57:00,69.1,60.8,30.05,South,180,0.0,0.0,75,0.00,,,0.00,WUHU21623XXSP,2013-06-01 06:57:00,
2013-06-01 03:02:00,69.1,60.8,30.06,South,180,0.0,0.0,75,0.00,,,0.00,WUHU21623XXSP,2013-06-01 07:02:00,
2013-06-01 03:07:00,69.1,60.8,30.06,South,180,0.0,0.0,75,0.00,,,0.00,WUHU21623XXSP,2013-06-01 07:07:00,
2013-06-01 03:12:00,68.5,61.1,30.07,NW,315,0.0,0.0,77,0.00,,,0.00,WUHU21623XXSP,2013-06-01 07:12:00,
2013-06-01 03:17:00,68.2,61.1,30.07,NW,315,0.0,0.0,78,0.00,,,0.00,WUHU21623XXSP,2013-06-01 07:17:00,
2013-06-01 03:22:00,67.3,61.3,30.07,NW,315,0.0,0.0,81,0.00,,,0.00,WUHU21623XXSP,2013-06-01 07:22:00,
2013-06-01 03:27:00,66.7,61.1,30.07,NW,315,0.0,0.0,82,0.00,,,0.00,WUHU21623XXSP,2013-06-01 07:27:00,
2013-06-01 03:32:00,66.7,61.4,30.07,NW,315,0.0,0.0,83,0.00,,,0.00,WUHU21623XXSP,2013-06-01 07:32:00,
2013-06-01 03:37:00,66.7,61.4,30.07,WNW,292,0.0,0.0,83,0.00,,,0.00,WUHU21623XXSP,2013-06-01 07:37:00,
2013-06-01 03:42:00,66.7,61.4,30.07,WNW,292,0.0,0.0,83,0.00,,,0.00,WUHU21623XXSP,2013-06-01 07:42:00,
2013-06-01 03:47:00,66.7,61.7,30.08,WNW,292,0.0,0.0,84,0.00,,,0.00,WUHU21623XXSP,2013-06-01 07:47:00,
2013-06-01 03:52:00,66.6,61.7,30.06,WNW,292,0.0,0.0,84,0.06,,,0.06,WUHU21623XXSP,2013-06-01 07:52:00,
2013-06-01 03:57:00,66.4,61.4,30.06,SE,135,0.0,0.0,84,0.18,,,0.18,WUHU21623XXSP,2013-06-01 07:57:00,
2013-06-01 04:02:00,66.0,61.0,30.05,SE,135,0.0,0.0,84,0.22,,,0.22,WUHU21623XXSP,2013-06-01 08:02:00,
2013-06-01 04:07:00,66.0,61.3,30.05,SE,135,0.0,0.0,85,0.23,,,0.23,WUHU21623XXSP,2013-06-01 08:07:00,
2013-06-01 04:12:00,66.0,61.3,30.05,SSE,157,0.0,0.0,85,0.23,,,0.23,WUHU21623XXSP,2013-06-01 08:12:00,
2013-06-01 04:17:00,65.8,61.2,30.05,ESE,112,0.0,0.0,85,0.24,,,0.24,WUHU21623XXSP,2013-06-01 08:17:00,
2013-06-01 04:22:00,65.8,61.2,30.04,ESE,112,0.0,0.0,85,0.25,,,0.25,WUHU21623XXSP,2013-06-01 08:22:00,
2013-06-01 04:27:00,65.8,61.2,30.05,ESE,112,0.0,0.0,85,0.27,,,0.27,WUHU21623XXSP,2013-06-01 08:27:00,
2013-06-01 04:32:00,65.8,61.2,30.05,ESE,112,0.0,0.0,85,0.27,,,0.27,WUHU21623XXSP,2013-06-01 08:32:00,
2013-06-01 04:37:00,66.0,61.3,30.04,ESE,112,0.0,0.0,85,0.28,,,0.28,WUHU21623XXSP,2013-06-01 08:37:00,
2013-06-01 04:42:00,66.0,61.7,30.04,ESE,112,0.0,0.0,86,0.28,,,0.28,WUHU21623XXSP,2013-06-01 08:42:00,
2013-06-01 04:47:00,66.0,61.7,30.04,ESE,112,0.0,0.0,86,0.28,,,0.28,WUHU21623XXSP,2013-06-01 08:47:00,
2013-06-01 04:52:00,66.0,61.7,30.04,ESE,112,0.0,0.0,86,0.10,,,0.28,WUHU21623XXSP,2013-06-01 08:52:00,
2013-06-01 04:57:00,66.0,61.7,30.04,ESE,112,0.0,0.0,86,0.05,,,0.28,WUHU21623XXSP,2013-06-01 08:57:00,
2013-06-01 05:02:00,66.0,61.7,30.04,ESE,112,0.0,0.0,86,0.04,,,0.28,WUHU21623XXSP,2013-06-01 09:02:00,
2013-06-01 05:07:00,66.0,61.7,30.04,ESE,112,0.0,0.0,86,0.04,,,0.28,WUHU21623XXSP,2013-06-01 09:07:00,
2013-06-01 05:12:00,65.8,61.5,30.04,ESE,112,0.0,0.0,86,0.04,,,0.28,WUHU21623XXSP,2013-06-01 09:12:00,
2013-06-01 05:17:00,65.8,61.5,30.04,ESE,112,0.0,0.0,86,0.03,,,0.28,WUHU21623XXSP,2013-06-01 09:17:00,
2013-06-01 05:22:00,65.8,61.5,30.04,ESE,112,0.0,0.0,86,0.01,,,0.28,WUHU21623XXSP,2013-06-01 09:22:00,
2013-06-01 05:27:00,65.8,61.5,30.04,ESE,112,0.0,0.0,86,0.01,,,0.28,WUHU21623XXSP,2013-06-01 09:27:00,
2013-06-01 05:32:00,65.8,61.5,30.03,ESE,112,0.0,0.0,86,0.00,,,0.28,WUHU21623XXSP,2013-06-01 09:32:00,
2013-06-01 05:37:00,65.8,61.5,30.04,ESE,112,0.0,0.0,86,0.00,,,0.28,WUHU21623XXSP,2013-06-01 09:37:00,
2013-06-01 05:42:00,65.8,61.5,30.04,ESE,112,0.0,0.0,86,0.01,,,0.29,WUHU21623XXSP,2013-06-01 09:42:00,
2013-06-01 05:47:00,65.8,61.5,30.05,ESE,112,0.0,0.0,86,0.01,,,0.29,WUHU21623XXSP,2013-06-01 09:47:00,
2013-06-01 05:52:00,65.8,61.5,30.04,ESE,112,0.0,0.0,86,0.01,,,0.29,WUHU21623XXSP,2013-06-01 09:52:00,
2013-06-01 05:57:00,65.8,61.5,30.04,ESE,112,0.0,0.0,86,0.01,,,0.29,WUHU21623XXSP,2013-06-01 09:57:00,
2013-06-01 06:02:00,65.8,61.5,30.04,ESE,112,0.0,0.0,86,0.01,,,0.29,WUHU21623XXSP,2013-06-01 10:02:00,
2013-06-01 06:07:00,65.8,61.5,30.04,ESE,112,0.0,0.0,86,0.01,,,0.29,WUHU21623XXSP,2013-06-01 10:07:00,
2013-06-01 06:12:00,65.8,61.5,30.05,ESE,112,0.0,0.0,86,0.01,,,0.29,WUHU21623XXSP,2013-06-01 10:12:00,
2013-06-01 06:17:00,65.8,61.5,30.05,ESE,112,0.0,0.0,86,0.01,,,0.29,WUHU21623XXSP,2013-06-01 10:17:00,
2013-06-01 06:22:00,65.8,61.5,30.05,ESE,112,0.0,0.0,86,0.01,,,0.29,WUHU21623XXSP,2013-06-01 10:22:00,
2013-06-01 06:27:00,65.8,61.5,30.05,ESE,112,0.0,0.0,86,0.01,,,0.29,WUHU21623XXSP,2013-06-01 10:27:00,
2013-06-01 06:32:00,65.8,61.7,30.05,ESE,112,0.0,0.0,86,0.01,,,0.29,WUHU21623XXSP,2013-06-01 10:32:00,
2013-06-01 06:37:00,66.0,61.7,30.05,ESE,112,0.0,0.0,86,0.01,,,0.29,WUHU21623XXSP,2013-06-01 10:37:00,
2013-06-01 06:42:00,66.0,61.7,30.05,ESE,112,0.0,0.0,86,0.00,,,0.29,WUHU21623XXSP,2013-06-01 10:42:00,
2013-06-01 06:47:00,66.0,61.7,30.05,ESE,112,0.0,0.0,86,0.00,,,0.29,WUHU21623XXSP,2013-06-01 10:47:00,
2013-06-01 06:52:00,66.0,61.7,30.06,ESE,112,0.0,0.0,87,0.00,,,0.29,WUHU21623XXSP,2013-06-01 10:52:00,
2013-06-01 06:57:00,66.2,62.2,30.05,ESE,112,0.0,0.0,87,0.00,,,0.29,WUHU21623XXSP,2013-06-01 10:57:00,
2013-06-01 07:02:00,66.4,62.3,30.06,ESE,112,0.0,0.0,87,0.00,,,0.29,WUHU21623XXSP,2013-06-01 11:02:00,
2013-06-01 07:07:00,66.4,62.3,30.06,ESE,112,0.0,0.0,87,0.00,,,0.29,WUHU21623XXSP,2013-06-01 11:07:00,
2013-06-01 07:12:00,66.4,62.3,30.05,ESE,112,0.0,0.0,87,0.00,,,0.29,WUHU21623XXSP,2013-06-01 11:12:00,
2013-06-01 07:17:00,66.4,62.3,30.05,ESE,112,0.0,0.0,87,0.00,,,0.29,WUHU21623XXSP,2013-06-01 11:17:00,
2013-06-01 07:22:00,66.6,62.5,30.05,ESE,112,0.0,0.0,87,0.00,,,0.29,WUHU21623XXSP,2013-06-01 11:22:00,
2013-06-01 07:27:00,66.7,62.7,30.05,ESE,112,0.0,0.0,87,0.00,,,0.29,WUHU21623XXSP,2013-06-01 11:27:00,
2013-06-01 07:32:00,66.7,62.7,30.06,ESE,112,0.0,0.0,87,0.00,,,0.29,WUHU21623XXSP,2013-06-01 11:32:00,
2013-06-01 07:37:00,66.9,62.6,30.05,ESE,112,0.0,0.0,86,0.00,,,0.29,WUHU21623XXSP,2013-06-01 11:37:00,
2013-06-01 07:42:00,66.9,62.6,30.06,ESE,112,0.0,0.0,86,0.00,,,0.29,WUHU21623XXSP,2013-06-01 11:42:00,
2013-06-01 07:47:00,66.9,62.6,30.05,ESE,112,0.0,0.0,86,0.00,,,0.29,WUHU21623XXSP,2013-06-01 11:47:00,
2013-06-01 07:52:00,66.9,62.6,30.05,ESE,112,0.0,0.0,86,0.00,,,0.29,WUHU21623XXSP,2013-06-01 11:52:00,
2013-06-01 07:57:00,66.9,62.6,30.05,ESE,112,0.0,0.0,86,0.00,,,0.29,WUHU21623XXSP,2013-06-01 11:57:00,
2013-06-01 08:02:00,67.1,62.7,30.05,ESE,112,0.0,0.0,86,0.00,,,0.29,WUHU21623XXSP,2013-06-01 12:02:00,
2013-06-01 08:07:00,67.3,62.9,30.05,ESE,112,0.0,0.0,86,0.00,,,0.29,WUHU21623XXSP,2013-06-01 12:07:00,
2013-06-01 08:12:00,67.3,62.9,30.05,ESE,112,0.0,0.0,86,0.00,,,0.29,WUHU21623XXSP,2013-06-01 12:12:00,
2013-06-01 08:17:00,67.6,63.3,30.05,ESE,112,0.0,0.0,86,0.00,,,0.29,WUHU21623XXSP,2013-06-01 12:17:00,
2013-06-01 08:22:00,67.8,63.5,30.05,ESE,112,0.0,0.0,86,0.00,,,0.29,WUHU21623XXSP,2013-06-01 12:22:00,
2013-06-01 08:27:00,68.2,63.6,30.05,ESE,112,0.0,0.0,86,0.00,,,0.29,WUHU21623XXSP,2013-06-01 12:27:00,
2013-06-01 08:32:00,68.5,63.8,30.05,SSW,202,0.0,0.0,85,0.00,,,0.29,WUHU21623XXSP,2013-06-01 12:32:00,
2013-06-01 08:37:00,68.9,63.8,30.05,SSW,202,0.0,0.0,84,0.00,,,0.29,WUHU21623XXSP,2013-06-01 12:37:00,
2013-06-01 08:42:00,69.3,64.2,30.05,SSW,202,0.0,0.0,84,0.00,,,0.29,WUHU21623XXSP,2013-06-01 12:42:00,
2013-06-01 08:47:00,69.6,64.5,30.05,SSW,202,0.0,0.0,84,0.00,,,0.29,WUHU21623XXSP,2013-06-01 12:47:00,
2013-06-01 08:52:00,70.0,64.5,30.05,SSW,202,0.0,0.0,83,0.00,,,0.29,WUHU21623XXSP,2013-06-01 12:52:00,
2013-06-01 08:57:00,70.3,64.9,30.05,SW,225,0.0,0.0,83,0.00,,,0.29,WUHU21623XXSP,2013-06-01 12:57:00,
2013-06-01 09:02:00,70.5,64.4,30.05,SW,225,0.0,0.0,81,0.00,,,0.29,WUHU21623XXSP,2013-06-01 13:02:00,
2013-06-01 09:07:00,71.2,64.8,30.04,SW,225,0.0,0.0,80,0.00,,,0.29,WUHU21623XXSP,2013-06-01 13:07:00,
2013-06-01 09:12:00,71.4,64.9,30.05,SW,225,0.0,0.0,80,0.00,,,0.29,WUHU21623XXSP,2013-06-01 13:12:00,
2013-06-01 09:17:00,72.1,65.3,30.04,SE,135,0.0,0.0,79,0.00,,,0.29,WUHU21623XXSP,2013-06-01 13:17:00,
2013-06-01 09:22:00,73.6,65.6,30.04,SSW,202,0.0,0.0,76,0.00,,,0.29,WUHU21623XXSP,2013-06-01 13:22:00,
2013-06-01 09:27:00,74.7,66.2,30.04,SSE,157,0.0,0.0,75,0.00,,,0.29,WUHU21623XXSP,2013-06-01 13:27:00,
2013-06-01 09:32:00,75.9,66.3,30.04,South,180,0.0,0.0,72,0.00,,,0.29,WUHU21623XXSP,2013-06-01 13:32:00,
2013-06-01 09:37:00,76.8,66.4,30.04,South,180,0.0,0.0,70,0.00,,,0.29,WUHU21623XXSP,2013-06-01 13:37:00,
2013-06-01 09:42:00,77.2,67.1,30.04,South,180,0.0,0.0,71,0.00,,,0.29,WUHU21623XXSP,2013-06-01 13:42:00,
2013-06-01 09:47:00,77.7,67.2,30.04,South,180,0.0,0.0,70,0.00,,,0.29,WUHU21623XXSP,2013-06-01 13:47:00,
2013-06-01 09:52:00,79.0,67.0,30.04,South,180,0.0,0.0,67,0.00,,,0.29,WUHU21623XXSP,2013-06-01 13:52:00,
2013-06-01 09:57:00,80.1,68.1,30.04,SSW,202,0.0,0.0,67,0.00,,,0.29,WUHU21623XXSP,2013-06-01 13:57:00,
2013-06-01 10:02:00,81.1,68.2,30.03,SSW,202,0.0,0.0,65,0.00,,,0.29,WUHU21623XXSP,2013-06-01 14:02:00,
2013-06-01 10:07:00,82.6,67.7,30.03,SSW,202,0.0,0.0,61,0.00,,,0.29,WUHU21623XXSP,2013-06-01 14:07:00,
2013-06-01 10:12:00,83.1,67.8,30.03,SW,225,0.0,0.0,60,0.00,,,0.29,WUHU21623XXSP,2013-06-01 14:12:00,
2013-06-01 10:17:00,83.7,67.8,30.03,SW,225,0.0,0.0,59,0.00,,,0.29,WUHU21623XXSP,2013-06-01 14:17:00,
2013-06-01 10:22:00,83.8,67.2,30.03,SW,225,0.0,0.0,56,0.00,,,0.29,WUHU21623XXSP,2013-06-01 14:22:00,
2013-06-01 10:27:00,83.5,65.6,30.03,South,180,0.0,0.0,55,0.00,,,0.29,WUHU21623XXSP,2013-06-01 14:27:00,
2013-06-01 10:32:00,83.5,65.6,30.03,SW,225,0.0,0.0,55,0.00,,,0.29,WUHU21623XXSP,2013-06-01 14:32:00,
2013-06-01 10:37:00,83.5,66.1,30.03,SSE,157,0.0,0.0,56,0.00,,,0.29,WUHU21623XXSP,2013-06-01 14:37:00,
2013-06-01 10:42:00,83.5,66.1,30.03,SSE,157,0.0,0.0,56,0.00,,,0.29,WUHU21623XXSP,2013-06-01 14:42:00,
2013-06-01 10:47:00,83.1,66.1,30.03,SSE,157,0.0,0.0,56,0.00,,,0.29,WUHU21623XXSP,2013-06-01 14:47:00,
2013-06-01 10:52:00,83.1,65.2,30.02,SW,225,0.0,0.9,55,0.00,,,0.29,WUHU21623XXSP,2013-06-01 14:52:00,
2013-06-01 10:57:00,83.1,65.2,30.02,NW,315,0.0,0.9,55,0.00,,,0.29,WUHU21623XXSP,2013-06-01 14:57:00,
2013-06-01 11:02:00,83.1,65.2,30.02,NW,315,0.0,0.0,55,0.00,,,0.29,WUHU21623XXSP,2013-06-01 15:02:00,
2013-06-01 11:07:00,83.1,65.2,30.02,WNW,292,0.0,0.0,55,0.00,,,0.29,WUHU21623XXSP,2013-06-01 15:07:00,
2013-06-01 11:12:00,83.5,65.6,30.02,WSW,247,0.0,0.0,56,0.00,,,0.29,WUHU21623XXSP,2013-06-01 15:12:00,
2013-06-01 11:17:00,83.8,65.4,30.02,West,270,2.5,2.5,54,0.00,,,0.29,WUHU21623XXSP,2013-06-01 15:17:00,
2013-06-01 11:22:00,84.0,65.6,30.02,SE,135,1.8,2.5,53,0.00,,,0.29,WUHU21623XXSP,2013-06-01 15:22:00,
2013-06-01 11:27:00,84.0,65.6,30.02,South,180,0.0,1.8,54,0.00,,,0.29,WUHU21623XXSP,2013-06-01 15:27:00,
2013-06-01 11:32:00,84.0,65.6,30.02,SSE,157,0.0,1.1,54,0.00,,,0.29,WUHU21623XXSP,2013-06-01 15:32:00,
2013-06-01 11:37:00,84.6,65.6,30.02,NE,45,0.0,1.1,53,0.00,,,0.29,WUHU21623XXSP,2013-06-01 15:37:00,
2013-06-01 11:42:00,84.6,65.6,30.02,West,270,0.0,0.0,53,0.00,,,0.29,WUHU21623XXSP,2013-06-01 15:42:00,
2013-06-01 11:47:00,84.9,65.4,30.02,West,270,0.0,0.0,52,0.00,,,0.29,WUHU21623XXSP,2013-06-01 15:47:00,
2013-06-01 11:52:00,85.1,65.4,30.02,SSE,157,2.0,2.0,52,0.00,,,0.29,WUHU21623XXSP,2013-06-01 15:52:00,
2013-06-01 11:57:00,85.3,65.7,30.02,South,180,1.1,2.0,52,0.00,,,0.29,WUHU21623XXSP,2013-06-01 15:57:00,
2013-06-01 12:02:00,85.3,65.7,30.01,SE,135,0.0,1.6,52,0.00,,,0.29,WUHU21623XXSP,2013-06-01 16:02:00,
2013-06-01 12:07:00,85.3,65.7,30.01,SW,225,0.0,1.6,52,0.00,,,0.29,WUHU21623XXSP,2013-06-01 16:07:00,
2013-06-01 12:12:00,85.6,65.5,30.01,SW,225,0.0,0.0,51,0.00,,,0.29,WUHU21623XXSP,2013-06-01 16:12:00,
2013-06-01 12:17:00,85.6,66.0,30.01,WSW,247,0.0,0.0,52,0.00,,,0.29,WUHU21623XXSP,2013-06-01 16:17:00,
2013-06-01 12:22:00,85.6,65.7,30.01,WSW,247,0.0,0.0,51,0.00,,,0.29,WUHU21623XXSP,2013-06-01 16:22:00,
2013-06-01 12:27:00,85.6,65.0,30.01,SE,135,0.9,5.1,50,0.00,,,0.29,WUHU21623XXSP,2013-06-01 16:27:00,
2013-06-01 12:32:00,85.8,65.7,30.01,SSW,202,0.0,5.1,51,0.00,,,0.29,WUHU21623XXSP,2013-06-01 16:32:00,
2013-06-01 12:37:00,86.2,65.5,30.01,SW,225,0.0,0.0,50,0.00,,,0.29,WUHU21623XXSP,2013-06-01 16:37:00,
2013-06-01 12:42:00,86.5,65.8,30.01,WSW,247,0.0,0.0,50,0.00,,,0.29,WUHU21623XXSP,2013-06-01 16:42:00,
2013-06-01 12:47:00,86.9,66.1,30.01,SSW,202,0.0,0.0,50,0.00,,,0.29,WUHU21623XXSP,2013-06-01 16:47:00,
2013-06-01 12:52:00,86.7,65.3,30.00,WSW,247,0.0,2.9,49,0.00,,,0.29,WUHU21623XXSP,2013-06-01 16:52:00,
2013-06-01 12:57:00,86.2,65.5,30.00,West,270,1.1,2.9,50,0.00,,,0.29,WUHU21623XXSP,2013-06-01 16:57:00,
2013-06-01 13:02:00,86.2,65.5,30.01,WNW,292,1.6,1.6,50,0.00,,,0.29,WUHU21623XXSP,2013-06-01 17:02:00,
2013-06-01 13:07:00,85.6,65.0,30.01,West,270,2.0,2.9,50,0.00,,,0.29,WUHU21623XXSP,2013-06-01 17:07:00,
2013-06-01 13:12:00,85.3,65.2,30.01,West,270,0.0,2.9,51,0.00,,,0.29,WUHU21623XXSP,2013-06-01 17:12:00,
2013-06-01 13:17:00,84.7,65.2,30.01,West,270,0.0,0.0,52,0.00,,,0.29,WUHU21623XXSP,2013-06-01 17:17:00,
2013-06-01 13:22:00,84.7,65.2,30.01,SSW,202,0.0,0.0,52,0.00,,,0.29,WUHU21623XXSP,2013-06-01 17:22:00,
2013-06-01 13:27:00,84.7,65.2,30.01,SW,225,0.0,1.6,52,0.00,,,0.29,WUHU21623XXSP,2013-06-01 17:27:00,
2013-06-01 13:32:00,85.3,66.2,30.00,SW,225,0.0,1.6,53,0.00,,,0.29,WUHU21623XXSP,2013-06-01 17:32:00,
2013-06-01 13:37:00,85.8,66.2,30.00,South,180,2.7,2.7,52,0.00,,,0.29,WUHU21623XXSP,2013-06-01 17:37:00,
2013-06-01 13:42:00,86.2,66.5,30.00,SW,225,0.0,2.7,52,0.00,,,0.29,WUHU21623XXSP,2013-06-01 17:42:00,
2013-06-01 13:47:00,86.7,65.9,30.00,West,270,1.1,1.1,50,0.00,,,0.29,WUHU21623XXSP,2013-06-01 17:47:00,
2013-06-01 13:52:00,86.9,66.1,30.00,WNW,292,1.3,5.1,50,0.00,,,0.29,WUHU21623XXSP,2013-06-01 17:52:00,
2013-06-01 13:57:00,86.9,66.1,30.00,WNW,292,0.0,5.1,50,0.00,,,0.29,WUHU21623XXSP,2013-06-01 17:57:00,
2013-06-01 14:02:00,87.1,66.8,30.00,WSW,247,0.0,0.0,51,0.00,,,0.29,WUHU21623XXSP,2013-06-01 18:02:00,
2013-06-01 14:07:00,87.4,67.1,29.99,WSW,247,0.0,0.0,51,0.00,,,0.29,WUHU21623XXSP,2013-06-01 18:07:00,
2013-06-01 14:12:00,87.4,66.6,29.99,WSW,247,0.0,0.0,50,0.00,,,0.29,WUHU21623XXSP,2013-06-01 18:12:00,
2013-06-01 14:17:00,87.3,66.4,29.99,West,270,1.8,1.8,51,0.00,,,0.29,WUHU21623XXSP,2013-06-01 18:17:00,
2013-06-01 14:22:00,87.4,66.4,29.99,South,180,2.7,2.7,50,0.00,,,0.29,WUHU21623XXSP,2013-06-01 18:22:00,
2013-06-01 14:27:00,87.3,65.8,29.99,NNW,337,0.0,2.7,49,0.00,,,0.29,WUHU21623XXSP,2013-06-01 18:27:00,
2013-06-01 14:32:00,87.4,66.0,29.98,WSW,247,0.0,2.7,49,0.00,,,0.29,WUHU21623XXSP,2013-06-01 18:32:00,
2013-06-01 14:37:00,87.6,66.1,29.98,SSE,157,0.0,1.3,49,0.00,,,0.29,WUHU21623XXSP,2013-06-01 18:37:00,
2013-06-01 14:42:00,87.6,66.1,29.98,South,180,0.0,0.0,50,0.00,,,0.29,WUHU21623XXSP,2013-06-01 18:42:00,
2013-06-01 14:47:00,86.9,65.6,29.98,WNW,292,0.0,0.0,50,0.00,,,0.29,WUHU21623XXSP,2013-06-01 18:47:00,
2013-06-01 14:52:00,86.4,65.6,29.98,SSW,202,0.0,0.0,50,0.00,,,0.29,WUHU21623XXSP,2013-06-01 18:52:00,
2013-06-01 14:57:00,85.8,65.1,29.98,WNW,292,0.0,0.0,50,0.00,,,0.29,WUHU21623XXSP,2013-06-01 18:57:00,
2013-06-01 15:02:00,85.8,65.1,29.98,WNW,292,0.7,3.4,50,0.00,,,0.29,WUHU21623XXSP,2013-06-01 19:02:00,
2013-06-01 15:07:00,86.0,66.3,29.98,NW,315,3.8,3.8,52,0.00,,,0.29,WUHU21623XXSP,2013-06-01 19:07:00,
2013-06-01 15:12:00,86.0,65.8,29.98,NW,315,3.8,3.8,51,0.00,,,0.29,WUHU21623XXSP,2013-06-01 19:12:00,
2013-06-01 15:17:00,86.4,66.1,29.98,WSW,247,1.3,3.8,51,0.00,,,0.29,WUHU21623XXSP,2013-06-01 19:17:00,
2013-06-01 15:22:00,86.5,66.1,29.98,WNW,292,0.0,1.3,51,0.00,,,0.29,WUHU21623XXSP,2013-06-01 19:22:00,
2013-06-01 15:27:00,86.5,65.8,29.98,West,270,2.2,2.2,50,0.00,,,0.29,WUHU21623XXSP,2013-06-01 19:27:00,
2013-06-01 15:32:00,86.5,65.8,29.98,West,270,0.0,2.2,50,0.00,,,0.29,WUHU21623XXSP,2013-06-01 19:32:00,
2013-06-01 15:37:00,86.7,66.5,29.97,WNW,292,0.0,6.5,51,0.00,,,0.29,WUHU21623XXSP,2013-06-01 19:37:00,
2013-06-01 15:42:00,86.7,65.9,29.97,WNW,292,2.9,6.5,50,0.00,,,0.29,WUHU21623XXSP,2013-06-01 19:42:00,
2013-06-01 15:47:00,86.7,65.9,29.97,WNW,292,2.9,6.3,50,0.00,,,0.29,WUHU21623XXSP,2013-06-01 19:47:00,
2013-06-01 15:52:00,86.7,65.9,29.97,WNW,292,2.9,2.9,50,0.00,,,0.29,WUHU21623XXSP,2013-06-01 19:52:00,
2013-06-01 15:57:00,86.4,65.6,29.97,West,270,0.0,2.9,50,0.00,,,0.29,WUHU21623XXSP,2013-06-01 19:57:00,
2013-06-01 16:02:00,86.4,65.6,29.97,West,270,0.0,0.0,50,0.00,,,0.29,WUHU21623XXSP,2013-06-01 20:02:00,
2013-06-01 16:07:00,86.5,65.8,29.96,West,270,0.0,0.9,50,0.00,,,0.29,WUHU21623XXSP,2013-06-01 20:07:00,
2013-06-01 16:12:00,86.7,65.9,29.96,West,270,0.0,0.9,50,0.00,,,0.29,WUHU21623XXSP,2013-06-01 20:12:00,
2013-06-01 16:17:00,86.7,66.5,29.96,SW,225,2.5,2.5,51,0.00,,,0.29,WUHU21623XXSP,2013-06-01 20:17:00,
2013-06-01 16:22:00,86.7,66.5,29.96,WNW,292,1.1,2.5,51,0.00,,,0.29,WUHU21623XXSP,2013-06-01 20:22:00,
2013-06-01 16:27:00,86.7,65.3,29.95,West,270,0.0,2.2,49,0.00,,,0.29,WUHU21623XXSP,2013-06-01 20:27:00,
2013-06-01 16:32:00,86.2,65.5,29.95,WNW,292,0.0,2.2,50,0.00,,,0.29,WUHU21623XXSP,2013-06-01 20:32:00,
2013-06-01 16:37:00,85.8,65.1,29.95,West,270,2.0,2.0,50,0.00,,,0.29,WUHU21623XXSP,2013-06-01 20:37:00,
2013-06-01 16:42:00,85.6,65.5,29.95,SSW,202,2.0,2.0,51,0.00,,,0.29,WUHU21623XXSP,2013-06-01 20:42:00,
2013-06-01 16:47:00,85.1,65.0,29.95,WNW,292,0.0,2.0,51,0.00,,,0.29,WUHU21623XXSP,2013-06-01 20:47:00,
2013-06-01 16:52:00,84.9,65.4,29.96,West,270,0.0,2.0,52,0.00,,,0.29,WUHU21623XXSP,2013-06-01 20:52:00,
2013-06-01 16:57:00,84.9,65.4,29.95,West,270,0.0,2.0,52,0.00,,,0.29,WUHU21623XXSP,2013-06-01 20:57:00,
2013-06-01 17:02:00,84.7,65.7,29.95,West,270,0.0,2.0,53,0.00,,,0.29,WUHU21623XXSP,2013-06-01 21:02:00,
2013-06-01 17:07:00,84.7,65.7,29.95,West,270,0.0,0.0,53,0.00,,,0.29,WUHU21623XXSP,2013-06-01 21:07:00,
2013-06-01 17:12:00,84.9,65.9,29.95,WSW,247,0.0,0.0,53,0.00,,,0.29,WUHU21623XXSP,2013-06-01 21:12:00,
2013-06-01 17:17:00,84.7,65.7,29.95,WSW,247,0.0,0.0,53,0.00,,,0.29,WUHU21623XXSP,2013-06-01 21:17:00,
2013-06-01 17:22:00,84.6,65.6,29.95,WSW,247,0.0,0.0,53,0.00,,,0.29,WUHU21623XXSP,2013-06-01 21:22:00,
2013-06-01 17:27:00,84.7,66.3,29.95,SSW,202,0.0,2.2,54,0.00,,,0.29,WUHU21623XXSP,2013-06-01 21:27:00,
2013-06-01 17:32:00,84.7,66.3,29.95,SSW,202,0.0,2.2,54,0.00,,,0.29,WUHU21623XXSP,2013-06-01 21:32:00,
2013-06-01 17:37:00,84.9,65.9,29.95,SSW,202,0.0,0.0,53,0.00,,,0.29,WUHU21623XXSP,2013-06-01 21:37:00,
2013-06-01 17:42:00,85.3,66.2,29.94,SSW,202,0.0,0.0,53,0.00,,,0.29,WUHU21623XXSP,2013-06-01 21:42:00,
2013-06-01 17:47:00,86.0,66.3,29.95,SSW,202,0.0,2.0,52,0.00,,,0.29,WUHU21623XXSP,2013-06-01 21:47:00,
2013-06-01 17:52:00,86.5,67.4,29.95,SSW,202,0.0,2.0,53,0.00,,,0.29,WUHU21623XXSP,2013-06-01 21:52:00,
2013-06-01 17:57:00,86.7,67.5,29.95,SSW,202,0.0,0.0,52,0.00,,,0.29,WUHU21623XXSP,2013-06-01 21:57:00,
2013-06-01 18:02:00,86.9,66.6,29.94,South,180,0.0,0.0,51,0.00,,,0.29,WUHU21623XXSP,2013-06-01 22:02:00,
2013-06-01 18:07:00,87.1,66.8,29.94,SW,225,0.0,0.0,51,0.00,,,0.29,WUHU21623XXSP,2013-06-01 22:07:00,
2013-06-01 18:12:00,87.1,66.3,29.94,WSW,247,0.0,0.0,50,0.00,,,0.29,WUHU21623XXSP,2013-06-01 22:12:00,
2013-06-01 18:17:00,86.9,66.1,29.93,SW,225,1.1,1.1,50,0.00,,,0.29,WUHU21623XXSP,2013-06-01 22:17:00,
2013-06-01 18:22:00,86.7,65.9,29.93,WSW,247,0.0,1.1,50,0.00,,,0.29,WUHU21623XXSP,2013-06-01 22:22:00,
2013-06-01 18:27:00,86.5,66.3,29.93,West,270,0.0,0.0,51,0.00,,,0.29,WUHU21623XXSP,2013-06-01 22:27:00,
2013-06-01 18:32:00,86.5,66.3,29.93,West,270,0.0,0.0,51,0.00,,,0.29,WUHU21623XXSP,2013-06-01 22:32:00,
2013-06-01 18:37:00,86.2,66.0,29.93,West,270,0.0,0.0,51,0.00,,,0.29,WUHU21623XXSP,2013-06-01 22:37:00,
2013-06-01 18:42:00,86.2,66.0,29.93,West,270,0.0,0.0,51,0.00,,,0.29,WUHU21623XXSP,2013-06-01 22:42:00,
2013-06-01 18:47:00,86.4,66.0,29.93,West,270,0.0,0.0,51,0.00,,,0.29,WUHU21623XXSP,2013-06-01 22:47:00,
2013-06-01 18:52:00,86.5,66.3,29.93,West,270,0.0,0.0,51,0.00,,,0.29,WUHU21623XXSP,2013-06-01 22:52:00,
2013-06-01 18:57:00,86.5,66.3,29.93,West,270,0.0,0.0,51,0.00,,,0.29,WUHU21623XXSP,2013-06-01 22:57:00,
2013-06-01 19:02:00,86.7,66.5,29.93,WSW,247,0.0,0.0,51,0.00,,,0.29,WUHU21623XXSP,2013-06-01 23:02:00,
2013-06-01 19:07:00,86.4,66.1,29.93,WSW,247,0.0,0.0,51,0.00,,,0.29,WUHU21623XXSP,2013-06-01 23:07:00,
2013-06-01 19:12:00,86.4,66.1,29.93,WSW,247,0.0,0.0,51,0.00,,,0.29,WUHU21623XXSP,2013-06-01 23:12:00,
2013-06-01 19:17:00,86.0,65.5,29.93,WSW,247,0.0,0.0,51,0.00,,,0.29,WUHU21623XXSP,2013-06-01 23:17:00,
2013-06-01 19:22:00,85.8,65.7,29.93,SW,225,0.0,0.0,51,0.00,,,0.29,WUHU21623XXSP,2013-06-01 23:22:00,
2013-06-01 19:27:00,85.5,65.9,29.92,SW,225,0.0,0.0,52,0.00,,,0.29,WUHU21623XXSP,2013-06-01 23:27:00,
2013-06-01 19:32:00,84.7,65.2,29.92,SW,225,0.0,0.0,52,0.00,,,0.29,WUHU21623XXSP,2013-06-01 23:32:00,
2013-06-01 19:37:00,84.6,65.0,29.92,SW,225,0.0,0.0,52,0.00,,,0.29,WUHU21623XXSP,2013-06-01 23:37:00,
2013-06-01 19:42:00,84.2,65.2,29.92,SW,225,0.0,0.0,53,0.00,,,0.29,WUHU21623XXSP,2013-06-01 23:42:00,
2013-06-01 19:47:00,83.8,65.4,29.92,SW,225,0.0,0.0,54,0.00,,,0.29,WUHU21623XXSP,2013-06-01 23:47:00,
2013-06-01 19:52:00,83.5,65.0,29.92,SW,225,0.0,0.0,54,0.00,,,0.29,WUHU21623XXSP,2013-06-01 23:52:00,
2013-06-01 19:57:00,83.5,65.0,29.92,SW,225,0.0,0.0,54,0.00,,,0.29,WUHU21623XXSP,2013-06-01 23:57:00,
2013-06-01 20:02:00,83.1,64.7,29.92,SW,225,0.0,0.0,54,0.00,,,0.29,WUHU21623XXSP,2013-06-02 00:02:00,
2013-06-01 20:07:00,82.8,64.8,29.92,SW,225,0.0,0.0,55,0.00,,,0.29,WUHU21623XXSP,2013-06-02 00:07:00,
2013-06-01 20:12:00,82.4,64.7,29.91,SW,225,0.0,0.0,55,0.00,,,0.29,WUHU21623XXSP,2013-06-02 00:12:00,
2013-06-01 20:17:00,82.0,64.2,29.91,SW,225,0.0,0.0,55,0.00,,,0.29,WUHU21623XXSP,2013-06-02 00:17:00,
2013-06-01 20:22:00,82.0,64.2,29.91,SW,225,0.0,0.0,55,0.00,,,0.29,WUHU21623XXSP,2013-06-02 00:22:00,
2013-06-01 20:27:00,81.7,63.8,29.91,SW,225,0.0,0.0,55,0.00,,,0.29,WUHU21623XXSP,2013-06-02 00:27:00,
2013-06-01 20:32:00,81.3,63.5,29.91,SW,225,0.0,0.0,55,0.00,,,0.29,WUHU21623XXSP,2013-06-02 00:32:00,
2013-06-01 20:37:00,81.1,63.9,29.91,SW,225,0.0,0.0,56,0.00,,,0.29,WUHU21623XXSP,2013-06-02 00:37:00,
2013-06-01 20:42:00,81.0,63.9,29.91,SW,225,0.0,0.0,56,0.00,,,0.29,WUHU21623XXSP,2013-06-02 00:42:00,
2013-06-01 20:47:00,80.8,63.6,29.91,SW,225,0.0,0.0,56,0.00,,,0.29,WUHU21623XXSP,2013-06-02 00:47:00,
2013-06-01 20:52:00,80.4,63.9,29.91,SW,225,0.0,0.0,57,0.00,,,0.29,WUHU21623XXSP,2013-06-02 00:52:00,
2013-06-01 20:57:00,80.4,64.3,29.91,SW,225,0.0,0.0,58,0.00,,,0.29,WUHU21623XXSP,2013-06-02 00:57:00,
2013-06-01 21:02:00,80.2,64.6,29.91,SW,225,0.0,0.0,59,0.00,,,0.29,WUHU21623XXSP,2013-06-02 01:02:00,
2013-06-01 21:07:00,79.9,64.5,29.91,SW,225,0.0,0.0,59,0.00,,,0.29,WUHU21623XXSP,2013-06-02 01:07:00,
2013-06-01 21:12:00,79.7,64.7,29.91,SW,225,0.0,0.0,60,0.00,,,0.29,WUHU21623XXSP,2013-06-02 01:12:00,
2013-06-01 21:17:00,79.3,64.8,29.92,SW,225,0.0,0.0,61,0.00,,,0.29,WUHU21623XXSP,2013-06-02 01:17:00,
2013-06-01 21:22:00,79.2,64.8,29.91,SW,225,0.0,0.0,61,0.00,,,0.29,WUHU21623XXSP,2013-06-02 01:22:00,
2013-06-01 21:27:00,79.0,64.9,29.92,SW,225,0.0,0.0,62,0.00,,,0.29,WUHU21623XXSP,2013-06-02 01:27:00,
2013-06-01 21:32:00,78.6,65.0,29.91,SW,225,0.0,0.0,63,0.00,,,0.29,WUHU21623XXSP,2013-06-02 01:32:00,
2013-06-01 21:37:00,78.4,64.8,29.91,SW,225,0.0,0.0,63,0.00,,,0.29,WUHU21623XXSP,2013-06-02 01:37:00,
2013-06-01 21:42:00,78.1,64.5,29.91,SW,225,0.0,0.0,63,0.00,,,0.29,WUHU21623XXSP,2013-06-02 01:42:00,
2013-06-01 21:47:00,77.7,64.5,29.91,SW,225,0.0,0.0,64,0.00,,,0.29,WUHU21623XXSP,2013-06-02 01:47:00,
2013-06-01 21:52:00,77.5,64.4,29.91,SW,225,0.0,0.0,64,0.00,,,0.29,WUHU21623XXSP,2013-06-02 01:52:00,
2013-06-01 21:57:00,77.4,64.2,29.91,SW,225,0.0,0.0,64,0.00,,,0.29,WUHU21623XXSP,2013-06-02 01:57:00,
2013-06-01 22:02:00,77.0,64.3,29.91,SW,225,0.0,0.0,65,0.00,,,0.29,WUHU21623XXSP,2013-06-02 02:02:00,
2013-06-01 22:07:00,76.8,64.1,29.91,SW,225,0.0,0.0,65,0.00,,,0.29,WUHU21623XXSP,2013-06-02 02:07:00,
2013-06-01 22:12:00,76.6,64.4,29.91,SW,225,0.0,0.0,66,0.00,,,0.29,WUHU21623XXSP,2013-06-02 02:12:00,
2013-06-01 22:17:00,76.1,63.9,29.91,SW,225,0.0,0.0,66,0.00,,,0.29,WUHU21623XXSP,2013-06-02 02:17:00,
2013-06-01 22:22:00,75.9,63.7,29.91,SW,225,0.0,0.0,66,0.00,,,0.29,WUHU21623XXSP,2013-06-02 02:22:00,
2013-06-01 22:27:00,75.7,63.5,29.91,SW,225,0.0,0.0,66,0.00,,,0.29,WUHU21623XXSP,2013-06-02 02:27:00,
2013-06-01 22:32:00,75.4,63.6,29.91,SW,225,0.0,0.0,67,0.00,,,0.29,WUHU21623XXSP,2013-06-02 02:32:00,
2013-06-01 22:37:00,75.0,63.3,29.91,SSE,157,0.0,0.0,67,0.00,,,0.29,WUHU21623XXSP,2013-06-02 02:37:00,
2013-06-01 22:42:00,75.0,63.3,29.90,SSE,157,0.0,0.0,67,0.00,,,0.29,WUHU21623XXSP,2013-06-02 02:42:00,
2013-06-01 22:47:00,75.0,63.3,29.90,SSE,157,0.0,0.0,67,0.00,,,0.29,WUHU21623XXSP,2013-06-02 02:47:00,
2013-06-01 22:52:00,74.8,63.1,29.90,SSE,157,0.0,0.0,67,0.00,,,0.29,WUHU21623XXSP,2013-06-02 02:52:00,
2013-06-01 22:57:00,74.8,63.1,29.90,SSE,157,0.0,0.0,67,0.00,,,0.29,WUHU21623XXSP,2013-06-02 02:57:00,
2013-06-01 23:02:00,74.5,62.8,29.90,SSE,157,0.0,0.0,67,0.00,,,0.29,WUHU21623XXSP,2013-06-02 03:02:00,
2013-06-01 23:07:00,74.5,62.8,29.90,SSE,157,0.0,0.0,67,0.00,,,0.29,WUHU21623XXSP,2013-06-02 03:07:00,
2013-06-01 23:12:00,74.3,62.6,29.90,SSE,157,0.0,0.0,67,0.00,,,0.29,WUHU21623XXSP,2013-06-02 03:12:00,
2013-06-01 23:17:00,74.1,62.9,29.90,SSE,157,0.0,0.0,68,0.00,,,0.29,WUHU21623XXSP,2013-06-02 03:17:00,
2013-06-01 23:22:00,74.1,62.9,29.90,SSE,157,0.0,0.0,68,0.00,,,0.29,WUHU21623XXSP,2013-06-02 03:22:00,
2013-06-01 23:27:00,73.9,63.2,29.90,SSE,157,0.0,0.0,69,0.00,,,0.29,WUHU21623XXSP,2013-06-02 03:27:00,
2013-06-01 23:32:00,73.8,63.0,29.90,SSE,157,0.0,0.0,69,0.00,,,0.29,WUHU21623XXSP,2013-06-02 03:32:00,
2013-06-01 23:37:00,73.8,63.0,29.90,SSE,157,0.0,0.0,69,0.00,,,0.29,WUHU21623XXSP,2013-06-02 03:37:00,
2013-06-01 23:42:00,73.6,62.9,29.89,SSE,157,0.0,0.0,69,0.00,,,0.29,WUHU21623XXSP,2013-06-02 03:42:00,
2013-06-01 23:47:00,73.6,62.9,29.89,SSE,157,0.0,0.0,69,0.00,,,0.29,WUHU21623XXSP,2013-06-02 03:47:00,
2013-06-01 23:52:00,73.6,62.9,29.89,SSE,157,0.0,0.0,69,0.00,,,0.29,WUHU21623XXSP,2013-06-02 03:52:00,
2013-06-01 23:57:00,73.4,62.7,29.89,SSE,157,0.0,0.0,69,0.00,,,0.29,WUHU21623XXSP,2013-06-02 03:57:00,